LiveATC.Net - Listen to live air traffic control over the Internet! Contact for advertising information

ICAO: KNEW  IATA: NEW   Airport: Lakefront Airport
City: New Orleans   State/Province: Louisiana
Country: United States   Continent: North America
KNEW METAR Weather: KNEW 020553Z AUTO 00000KT 5SM BR OVC003 18/18 A2992 RMK AO2 CIG 002V006 SLP125 60005 T01830178 10189 20183 402500183 56007
KNEW Flight Activity (FlightAware)
KNEW Airport Info   (AirNav) (iFlightPlanner)
KNEW VFR Sectional Chart   (iFlightPlanner) 
KNEW IFR Low Chart   (iFlightPlanner) 
KNEW Del/Gnd/Twr
Feed Status: DOWN
Last heard on: 2015-11-09 18:42:03 (22 days 12 hours 16 minutes ago)
KNEW Del/Gnd/Twr Audio Archives
Lakefront Clearance Delivery127.400
Lakefront Ground121.700
Lakefront Tower119.900

Feed sponsored by:


Unauthorized use prohibited. See Terms of Service

Find LiveATC Audio Streams

Airport/ARTCC Code

(e.g., 124.400, 128.75)
Site-wide search

Browse LiveATC Feeds
LiveATC Coverage Map
Top 50 LiveATC Feeds
Bad Weather Areas

Offer a LiveATC Feed
Press Inquiries

LiveATC on iPhone
LiveATC on Android

Windows Phone
Windows 8/10

LiveATC Mobile
(Mobile browser)

ATC Audio Archives
Interesting Recordings

LiveATC Forums

Home Page
Make a Donation
LiveATC Bookstore

Terms of Use
Privacy Policy

ATC/Radar Sites
U.S. ARTCC Freqs
Canadian Air Freqs


FAA Airport Status
Nat'l Airspace Status
Arrival Demand Charts

Server Software By:

Please make a donation to help us keep growing!